Flag for France Weather past 2 weeks in Grenoble, France

Now
68 °F

Passing clouds.


Feels Like: 68 °F
Forecast: 48 / 76 °F
Wind: 3 mph from North

Location: Grenoble / St. Geoirs


UV Index: 3 (Moderate)

Visibility: N/A


Pressure: 30.04 "Hg

Humidity: 46%

Dew point: 46 °F

Location of GrenobleLocation

Historic Weather in Grenoble

°F

Grenoble temperature yesterday

Maximum temperature yesterday: 64 °F (at 12:30 PM)
Minimum temperature yesterday: 46 °F (at 6:30 AM)
Average temperature yesterday: 54 °F

Past Weeks' High & Low Weather Summary

 TemperatureHumidityPressure
High72 °F (Apr 11, 4:00 PM)100% (Apr 10, 7:30 AM)30.30 "Hg (Apr 10, 7:30 AM)
Low30 °F (Apr 20, 4:30 AM)30% (Apr 17, 4:30 PM)29.65 "Hg (Apr 21, 5:30 AM)
Average51 °F69%30.00 "Hg
* Reported Apr 8 3:00 PM — Apr 23 3:30 PM, Grenoble, Weather by CustomWeather, © 2014

Note: Actual official high and low records may vary slightly from our data, if they occured in-between our weather recording intervals... More about our weather records

Advertising

Historic Weather Conditions — Data for Previous 24 hours

 ConditionsComfort  
Time TempWeatherWind HumidityBarometerVisibility
3:30 PM
Apr 23
66 °FPassing clouds.3 mph56%30.04 "HgN/A
3:00 PM64 °FBroken clouds.5 mph60%30.07 "HgN/A
2:30 PM66 °FBroken clouds.3 mph60%30.07 "HgN/A
2:00 PM66 °FPartly sunny.5 mph60%30.07 "HgN/A
1:30 PM66 °FPassing clouds.6 mph64%30.07 "HgN/A
1:00 PM64 °FPartly sunny.7 mph60%30.07 "HgN/A
12:30 PM63 °FPartly sunny.7 mph64%30.07 "HgN/A
12:00 PM63 °FBroken clouds.3 mph68%30.07 "HgN/A
11:30 AM63 °FPassing clouds.3 mph68%30.07 "HgN/A
11:00 AM61 °FScattered clouds.3 mph72%30.07 "HgN/A
10:30 AM59 °FPassing clouds.3 mph77%30.07 "HgN/A
10:00 AM59 °FPassing clouds.3 mph77%30.07 "HgN/A
9:30 AM57 °FClear.2 mph82%30.07 "HgN/A
9:00 AM54 °FClear.3 mph94%30.07 "Hg5 mi
8:30 AM52 °FPassing clouds.2 mph94%30.07 "Hg4 mi
8:00 AM50 °FFog.3 mph100%30.07 "Hg2 mi
7:30 AM50 °FFog.2 mph100%30.07 "Hg1 mi
7:00 AM48 °FFog.2 mph100%30.07 "Hg2 mi
6:30 AM48 °FFog.No wind100%30.07 "Hg2 mi
6:00 AM48 °FFog.1 mph94%30.07 "Hg1 mi
5:30 AM48 °FFog.2 mph100%30.07 "Hg2 mi
5:00 AM50 °FFog.3 mph94%30.07 "Hg0 mi
4:30 AM50 °FFog.3 mph94%30.07 "Hg0 mi
4:00 AM50 °FFog.3 mph94%30.07 "Hg1 mi
3:30 AM50 °FFog.1 mph100%30.07 "Hg0 mi
3:00 AM52 °FLight rain. Fog.No wind94%30.07 "Hg2 mi
2:30 AM50 °FLight rain. Mostly cloudy.No wind100%30.07 "Hg6 mi
2:00 AM50 °FLight rain. Overcast.2 mph94%30.07 "HgN/A
1:30 AM52 °FOvercast.2 mph94%30.07 "HgN/A
1:00 AM52 °FOvercast.3 mph94%30.07 "HgN/A
12:30 AM52 °FPassing clouds.3 mph94%30.07 "HgN/A
12:00 AM52 °FMostly cloudy.2 mph94%30.04 "HgN/A
11:30 PM
Apr 22
52 °FOvercast.3 mph94%30.04 "HgN/A
11:00 PM52 °FMostly cloudy.3 mph94%30.04 "HgN/A
10:30 PM52 °FLight rain. Mostly cloudy.2 mph94%30.04 "HgN/A
10:00 PM54 °FLight rain. Overcast.2 mph88%30.01 "HgN/A
9:30 PM54 °FLight rain. Mostly cloudy.3 mph88%30.01 "HgN/A
9:00 PM54 °FMostly cloudy.3 mph88%30.01 "HgN/A
8:30 PM54 °FMore clouds than sun.3 mph88%29.98 "HgN/A
8:00 PM54 °FClear.3 mph88%29.98 "HgN/A
7:30 PM54 °FClear.3 mph88%29.95 "HgN/A
7:00 PM54 °FMostly cloudy.3 mph88%29.95 "HgN/A
6:30 PM54 °FLight rain. Mostly cloudy.3 mph88%29.95 "HgN/A
6:00 PM52 °FRain. More clouds than sun.7 mph88%29.95 "Hg4 mi
5:30 PM54 °FHeavy rain. Fog.15 mph82%29.95 "Hg2 mi
5:00 PM61 °FThunderstorms. Partly sunny.3 mph63%29.92 "HgN/A
4:30 PM63 °FBroken clouds.3 mph59%29.92 "HgN/A
4:00 PM61 °FCool.3 mph63%29.89 "HgN/A
Weather by CustomWeather, © 2014

See weather overview